Regional Weather Roundup
Issued by NWS Goodland, KS

Home | Current Version | Previous Version | Text Only | Print | Product List | Glossary On
Versions: 1 2 3 4 5 6 7 8 9 10 11 12 13 14 15 16 17 18 19 20 21 22 23 24 25 26 27 28 29 30 31 32 33 34 35 36 37 38 39 40 41 42 43 44 45 46 47 48 49 50
000
ASUS43 KGLD 210208
RWRGLD

GOODLAND FORECAST AREA HOURLY WEATHER ROUNDUP
NATIONAL WEATHER SERVICE GOODLAND KS
800 PM MDT SUN APR 20 2014

...OFFICIAL OBSERVATIONS...

CITY           SKY/WX    TMP DP  RH WIND       PRES   REMARKS
GOODLAND KS    PTCLDY    59  46  62 N6        29.95R
HILL CITY KS   TSTM      59  57  93 SE17      29.96F FOG
IMPERIAL NEB   PTCLDY    62  45  53 SE3       29.94R
MCCOOK NEB     CLOUDY    64  53  67 SE7       29.92R
AKRON CO       PTCLDY    62  37  39 NW10      30.00R
BURLINGTON CO  CLEAR     62  45  53 NE3       29.98R
LIMON CO       CLEAR     50  36  58 N6        30.05R
$$

...UNOFFICIAL OBSERVATIONS...

CITY           SKY/WX    TMP DP  RH WIND       PRES   REMARKS
COLBY KS       CLEAR     63  55  77 SE3       29.95R
LENORA KS        N/A     58  32  37 E18         N/A
LEOTI KS         N/A     66  32  28 SE6         N/A
NORTON KS      PTCLDY    57  52  82 SE10G16   29.93R
OBERLIN KS     FAIR      59  52  77 E8        29.93R
SHARON SPRINGS   N/A     67  49  52 CALM        N/A
ST FRANCIS KS  PTCLDY    63  41  45 CALM      29.94R
TRIBUNE KS     MOCLDY    64  52  63 CALM      29.95
WAKEENEY KS      N/A     64  54  69 MISG        N/A
KIT CARSON CO    N/A     59  43  55 MISG        N/A
WRAY CO        FAIR      66  46  48 CALM      29.96
$$



USA.gov is the U.S. government's official web portal to all federal, state and local government web resources and services.